Location: Joplin, MO
(37.0842°N, 94.5133°W)
Time: 16:50:17
(UTC+02:00)

S-56A Canister/Altair - Visible Passes

Search period start: 30 March 2023 00:00
Search period end: 09 April 2023 00:00
Orbit: 639 x 2493 km, 38.9° (Epoch: 29 March)

Date Brightness Start Highest point End Pass type
(mag) Time Alt. Az. Time Alt. Az. Time Alt. Az.
30 Mar 9.8 03:43:04 10° W 03:54:38 83° N 04:07:14 18° E visible
30 Mar 9.7 05:48:23 10° WNW 06:02:01 87° SSW 06:04:37 69° ESE visible
30 Mar 10.7 07:54:32 10° WNW 08:02:00 35° W 08:02:00 35° W visible
31 Mar 9.8 03:10:04 10° W 03:20:58 84° N 03:35:51 10° E visible
31 Mar 9.8 05:15:09 10° WNW 05:28:12 89° S 05:33:15 52° ESE visible
31 Mar 10.3 07:20:58 10° WNW 07:30:38 46° WSW 07:30:38 46° WSW visible
01 Apr 9.8 04:42:00 10° W 04:54:25 88° NNE 05:01:54 38° ESE visible
01 Apr 10.0 06:47:31 10° WNW 06:59:18 58° WSW 06:59:18 58° WSW visible
01 Apr 11.4 08:55:16 10° W 08:56:41 13° W 08:56:41 13° W visible
02 Apr 9.8 04:08:55 10° W 04:20:40 86° N 04:30:33 27° E visible
02 Apr 9.8 06:14:09 10° WNW 06:27:31 66° SSW 06:27:57 66° SSW visible
02 Apr 11.2 08:21:14 10° W 08:25:20 20° W 08:25:20 20° W visible
03 Apr 9.7 03:35:55 10° W 03:46:59 84° N 03:59:14 18° E visible
03 Apr 9.8 05:40:53 10° WNW 05:53:48 70° SSW 05:56:37 61° SSE visible
03 Apr 10.9 07:47:24 10° W 07:54:01 27° WSW 07:54:01 27° WSW visible
04 Apr 9.7 03:03:00 10° W 03:13:22 83° N 03:27:56 10° E visible
04 Apr 9.8 05:07:43 10° WNW 05:20:06 74° SSW 05:25:20 48° SE visible
04 Apr 10.6 07:13:44 10° W 07:22:44 35° WSW 07:22:44 35° WSW visible
05 Apr 9.7 04:34:39 10° WNW 04:46:26 78° SSW 04:54:04 36° ESE visible
05 Apr 10.4 06:40:13 10° WNW 06:51:28 42° SW 06:51:28 42° SW visible
06 Apr 9.7 04:01:40 10° WNW 04:12:48 82° SSW 04:22:51 25° ESE visible
06 Apr 10.2 06:06:50 10° WNW 06:18:55 46° SW 06:20:15 45° SSW visible
06 Apr 11.5 08:16:31 10° W 08:17:40 12° WSW 08:17:40 12° WSW visible
07 Apr 9.6 03:28:43 10° WNW 03:39:13 85° SSW 03:51:41 16° ESE visible
07 Apr 10.1 05:33:35 10° WNW 05:45:20 50° SW 05:49:05 43° S visible
07 Apr 11.3 07:41:58 10° W 07:46:30 17° WSW 07:46:30 17° WSW visible
08 Apr 9.6 02:55:53 10° WNW 03:05:42 88° SSW 03:19:52 10° ESE visible
08 Apr 10.0 05:00:25 10° WNW 05:11:46 54° SSW 05:17:57 36° SSE visible
08 Apr 11.0 07:07:50 10° W 07:15:22 21° SW 07:15:22 21° SW visible
